Cloud_Cover
20 12 99 80 100 96 5 3 5 5 6 0 0 0 0 0 0 0 0 0 0 0 0 0 0 0 0 0 5 5 5 5 5
56 91 100 100 100 5 0 2 7 3 11 0 0 0 0 0 0 0 0 0 0 0 0 0 0 0 0 0 5 5 5 5 5
100 42 88 98 18 3 3 8 5 5 8 0 0 0 0 0 0 0 0 0 0 0 2 2 1 3 0 0 5 9 9 5 5
100 100 100 82 94 6 0 11 5 1 19 0 0 0 0 0 0 0 0 4 1 5 5 5 5 5 4 5 5 5 26 5 5
100 88 100 100 56 5 5 17 5 5 5 5 0 0 0 0 0 0 2 5 5 5 5 5 1 0 3 0 5 5 5 5 5
74 77 100 99 39 25 14 5 5 5 5 5 5 1 0 0 0 0 5 5 5 5 5 5 3 2 5 4 13 14 5 67 59
95 53 74 5 5 23 5 5 5 5 5 5 5 5 2 3 0 4 4 2 6 5 40 5 3 0 2 2 5 5 55 100 94
100 100 100 100 98 65 5 5 5 5 5 5 4 2 5 20 100 5 0 1 0 6 3 16 14 4 0 4 5 5 5 5 5
100 58 93 100 100 98 91 100 9 5 5 5 5 14 4 78 32 66 5 0 2 3 86 100 53 40 3 5 5 5 5 5 5
100 97 97 100 93 100 100 100 5 5 3 0 5 7 5 17 100 22 9 5 2 66 100 100 73 5 5 9 39 5 5 5 8
100 81 66 90 84 94 100 62 16 5 30 7 5 5 5 5 79 100 63 18 100 100 100 97 5 5 33 11 22 4 23 67 29
100 100 97 94 100 68 31 100 85 5 6 5 5 0 4 7 41 79 94 100 5 7 1 13 31 35 5 65 5 11 5 41 22
100 84 100 95 5 53 96 61 5 17 7 8 17 10 24 17 2 4 6 23 87 56 5 1 0 5 52 70 32 83 5 73 25
100 90 100 96 79 15 17 64 15 71 82 58 95 81 95 27 23 13 8 29 26 15 43 4 4 5 72 44 5 7 71 47 90
100 100 100 100 99 49 62 16 16 42 100 34 20 79 96 69 83 81 5 4 5 4 4 6 54 66 10 0 6 42 96 5 89
100 100 100 100 69 30 7 5 63 100 68 39 75 22 9 83 61 83 4 3 7 38 82 45 100 44 3 10 13 6 27 43 93
93 100 100 71 39 16 5 19 88 97 60 40 6 6 37 4 45 37 18 5 3 14 19 75 76 74 41 20 24 100 89 6 66
100 100 100 96 68 86 27 42 35 29 50 26 33 68 36 5 5 5 5 5 5 5 1 8 13 22 37 58 28 84 59 5 5
100 100 100 100 100 99 100 99 100 100 100 100 96 94 100 100 94 49 10 5 5 5 25 47 5 4 5 12 100 100 74 21 66
100 100 100 100 100 100 100 100 100 100 100 100 100 100 100 100 98 97 97 21 6 12 6 50 5 5 5 31 5 91 100 100 100